Location: Lane
(33.5226°N, 79.8788°W)
Time: 20:24:18
(UTC+00:00)

Courier 1B Rocket - Pass Details

Date: 10 October 2022
Orbit: 920 x 1202 km, 28.3° (Epoch: 01 December)

Event Time Altitude Azimuth Distance (km) Brightness Sun altitude
Rises 19:23:45 0° 221° (SW) 4,079 9.2 38.1°
Reaches altitude 10° 19:27:07 10° 210° (SSW) 3,099 8.8 37.6°
Maximum altitude 19:33:18 27° 157° (SSE) 2,069 7.2 36.7°
Drops below altitude 10° 19:39:15 10° 103° (ESE) 2,978 7.3 35.8°
Sets 19:42:24 0° 91° (E) 3,892 7.8 35.3°
